Terminal Aerodrome Forecast
Issued by NWS

Home | Current Version | Previous Version | Text Only | Print | Product List | Glossary On
Versions: 1 2 3 4 5 6 7 8 9 10 11 12 13 14 15 16 17 18 19 20 21 22 23 24 25 26
000
FTUS45 KREV 252300
TAFTVL
TAF
KTVL 252334Z 2600/2624 20008KT P6SM VCSH SCT030 BKN050
     FM260200 VRB04KT P6SM FEW030 SCT080
     FM262000 02007KT P6SM SKC=

USA.gov is the U.S. government's official web portal to all federal, state and local government web resources and services.